Flag for U.S.A. Weather past 2 weeks in Fairbanks, Alaska, U.S.A.

Now
36 °F

Partly sunny.


Feels Like: 27 °F
Forecast: 21 / 32 °F
Wind: 14 mph from Northeast

Location: Wainwright U. S. Army Airfield

Current Time: Oct 20, 2014 at 7:29:27 PM

Latest Report: Oct 20, 2014 at 6:55 PM


Visibility: 7 mi

Pressure: 29.14 "Hg

Humidity: 56%

Dew point: 21 °F

Location of FairbanksLocation

Historic Weather in Fairbanks — Graph

°F

Fairbanks temperature yesterday

Maximum temperature yesterday: 35 °F (at 4:56 PM)
Minimum temperature yesterday: 20 °F (at 12:56 AM)
Average temperature yesterday: 29 °F

Past Weeks' High & Low Weather Summary

 TemperatureHumidityPressure
High38 °F (Oct 11, 3:56 PM)93% (Oct 5, 7:00 PM)30.29 "Hg (Oct 5, 7:00 PM)
Low12 °F (Oct 7, 6:55 AM)51% (Oct 9, 3:55 PM)29.10 "Hg (Oct 10, 4:56 AM)
Average27 °F76%29.64 "Hg
* Reported Oct 5 5:56 PM — Oct 20 5:55 PM, Fairbanks, Weather by CustomWeather, © 2014

Note: Actual official high and low records may vary slightly from our data, if they occured in-between our weather recording intervals... More about our weather records

Advertising

Fairbanks weather history for previous 24 hours

 ConditionsComfort  
Time TempWeatherWind HumidityBarometerVisibility
5:55 PM
Oct 20
36 °FPartly sunny.14 mph56%29.13 "Hg25 mi
4:55 PM37 °FPartly sunny.16 mph52%29.13 "Hg25 mi
3:55 PM37 °FPartly sunny.17 mph52%29.12 "Hg25 mi
2:55 PM37 °FPartly sunny.17 mph56%29.10 "Hg25 mi
1:55 PM37 °FPartly sunny.12 mph56%29.11 "Hg13 mi
12:55 PM37 °FPartly sunny.8 mph60%29.11 "Hg10 mi
11:55 AM37 °FPartly sunny.8 mph60%29.11 "Hg10 mi
10:55 AM36 °FPartly sunny.7 mph60%29.12 "Hg10 mi
9:55 AM34 °FMostly cloudy.6 mph65%29.12 "Hg10 mi
8:55 AM34 °FMostly cloudy.6 mph65%29.12 "Hg10 mi
7:55 AM34 °FMostly cloudy.5 mph65%29.13 "Hg10 mi
6:55 AM34 °FMostly cloudy.No wind65%29.14 "Hg10 mi
5:56 AM32 °FOvercast.No wind66%29.14 "Hg10 mi
4:56 AM32 °FOvercast.5 mph66%29.15 "Hg10 mi
3:56 AM33 °FOvercast.6 mph63%29.17 "Hg10 mi
2:56 AM34 °FOvercast.5 mph61%29.17 "Hg10 mi
1:56 AM33 °FOvercast.7 mph63%29.20 "Hg10 mi
12:56 AM33 °FOvercast.5 mph63%29.21 "Hg10 mi
11:56 PM
Oct 19
32 °FOvercast.3 mph69%29.23 "Hg10 mi
10:56 PM32 °FOvercast.No wind69%29.23 "Hg10 mi
9:56 PM31 °FOvercast.No wind76%29.23 "Hg10 mi
8:56 PM31 °FOvercast.No wind79%29.25 "Hg10 mi
Weather by CustomWeather, © 2014

See weather overviewHow to use our weather pages